Location: Unspecified
(58.9933°N, 5.6375°E)
Time: 10:02:14
(UTC+02:00)

Cosmos 1674 - Visible Passes

Search period start: 25 August 2016 00:00
Search period end: 04 September 2016 00:00
Orbit: 499 x 526 km, 82.5° (Epoch: 24 August)

Date Brightness Start Highest point End Pass type
(mag) Time Alt. Az. Time Alt. Az. Time Alt. Az.
25 Aug 2.5 01:23:48 10° NNW 01:27:35 81° W 01:27:57 70° SSW visible
25 Aug 5.0 03:00:59 10° NW 03:02:36 12° W 03:02:54 12° W visible
25 Aug 4.9 23:33:06 10° NNE 23:35:22 15° NE 23:37:06 12° E visible
26 Aug 2.5 01:07:52 10° NNW 01:11:40 85° ENE 01:12:02 72° SSE visible
26 Aug 4.8 02:44:41 10° NW 02:46:47 14° W 02:46:58 14° W visible
26 Aug 5.1 23:17:25 10° NNE 23:19:21 13° NE 23:21:11 10° E visible
27 Aug 2.6 00:51:58 10° N 00:55:45 72° ENE 00:56:07 65° ESE visible
27 Aug 4.7 02:28:29 10° NW 02:30:58 17° W 02:31:03 17° W visible
27 Aug 5.1 23:01:49 10° NNE 23:03:18 12° NE 23:04:47 10° ENE visible
28 Aug 2.8 00:36:03 10° N 00:39:48 61° ENE 00:40:13 56° ESE visible
28 Aug 4.5 02:12:22 10° NW 02:15:07 19° W 02:15:10 19° W visible
28 Aug 5.2 22:46:28 10° NE 22:47:16 10° NE 22:48:03 10° ENE visible
29 Aug 3.0 00:20:09 10° N 00:23:52 51° ENE 00:24:19 48° E visible
29 Aug 4.4 01:56:17 10° NW 01:59:15 22° W 01:59:15 22° W visible
30 Aug 3.2 00:04:16 10° N 00:07:54 43° ENE 00:08:25 41° E visible
30 Aug 4.2 01:40:13 10° NNW 01:43:21 26° W 01:43:21 26° W visible
30 Aug 3.5 23:48:22 10° N 23:51:56 37° ENE 23:52:32 35° E visible
31 Aug 3.9 01:24:11 10° NNW 01:27:28 30° W 01:27:28 30° W visible
31 Aug 3.7 23:32:30 10° N 23:35:57 32° ENE 23:36:39 30° E visible
01 Sep 3.7 01:08:10 10° NNW 01:11:36 35° W 01:11:36 35° W visible
01 Sep 3.9 23:16:39 10° N 23:19:58 28° ENE 23:20:47 26° E visible
02 Sep 3.5 00:52:10 10° NNW 00:55:43 42° W 00:55:43 42° W visible
02 Sep 4.1 23:00:47 10° N 23:03:58 25° ENE 23:04:55 22° E visible
03 Sep 3.2 00:36:11 10° NNW 00:39:51 50° W 00:39:51 50° W visible
03 Sep 4.3 22:44:57 10° N 22:47:58 22° ENE 22:49:03 19° E visible
